Regional Weather Roundup
Issued by NWS Upton, NY

Current Version | Previous Version | Text Only | Print | Product List | Glossary Off
Versions: 1 2 3 4 5 6 7 8 9 10 11 12 13 14 15 16 17 18 19 20 21 22 23 24 25 26 27
000 ASUS41 KOKX 250409 RWROKX REGIONAL WEATHER ROUNDUP NATIONAL WEATHER SERVICE NEW YORK NY 1200 AM EDT TUE JUL 25 2017 NOTE: "FAIR" INDICATES FEW OR NO CLOUDS BELOW 12,000 FEET WITH NO SIGNIFICANT WEATHER AND/OR OBSTRUCTIONS TO VISIBILITY. NYZ071-072-176-178-NJZ106-104-250500- NEW YORK CITY METRO AREA CITY SKY/WX TMP DP RH WIND PRES REMARKS Central Park CLOUDY 65 58 78 E6 29.99R Bronx Bot Gard N/A 63 55 77 E1 29.97S LaGuardia APRT CLOUDY 65 59 81 E10 29.96R Kennedy INTL CLOUDY 64 60 87 NE8 29.96S Breezy Point N/A 63 N/A N/A NE7 N/A Newark/Liberty CLOUDY 65 59 81 E7 29.96R Teterboro CLOUDY 64 57 78 E6 29.95R $$ NYZ177-179-078>081-250500- LONG ISLAND NEW YORK CITY SKY/WX TMP DP RH WIND PRES REMARKS Jones Beach N/A 63 N/A N/A NE10 N/A Matinecock PT N/A 63 N/A N/A E15 N/A Farmingdale CLOUDY 63 57 81 E5 29.96R MacArthur/ISP CLOUDY 63 58 83 NE9 29.96R Shirley CLOUDY 63 58 83 VRB5 29.96R Mt Sinai Harb N/A N/A N/A N/A NE9G16 N/A Westhampton CLOUDY 62 57 83 NE6 29.96R East Hampton CLOUDY 60 56 86 NE8 29.94S Montauk N/A 63 58 83 NE9G17 29.95R $$ NYZ052-065-067-250500- HUDSON VALLEY CITY SKY/WX TMP DP RH WIND PRES REMARKS White Plains PTCLDY 61 55 81 CALM 29.98R Larchmont Harb N/A 63 N/A N/A N12 N/A Croton O-T Hud N/A 61 N/A N/A CALM N/A Newburgh CLOUDY 61 57 88 E12 29.97R Montgomery CLOUDY 61 57 87 NE6 29.96R Poughkeepsie CLOUDY 61 54 77 SE3 29.96R Albany CLOUDY 60 56 86 S5 29.97R $$ NJZ001-105-106-008-010-013-015-019>022-104-250500- NEW JERSEY CITY SKY/WX TMP DP RH WIND PRES REMARKS Newark/Liberty CLOUDY 65 59 81 E7 29.96R Teterboro CLOUDY 64 57 78 E6 29.95R Caldwell CLOUDY 63 58 83 SE9 29.96R Somerville CLOUDY 65 64 97 CALM 29.93R Linden CLOUDY 65 59 81 CALM 29.96R Perth Amboy N/A 64 N/A N/A NE8 N/A Sussex CLOUDY 63 61 93 E3 29.96R Andover N/A 63 60 90 CALM 29.96R Trenton CLOUDY 65 63 93 E7 29.94R Millville TSTM 68 68 100 E9 29.91S Atlantic City CLOUDY 68 67 96 E7 29.92F Wrightstown CLOUDY 64 63 95 E3 29.92R Toms River CLOUDY 65 64 97 NE3 29.95R Belmar CLOUDY 64 63 96 E5 29.95R $$ PAZ047>061-062-071-250500- EASTERN PENNSYLVANIA CITY SKY/WX TMP DP RH WIND PRES REMARKS Philadelphia CLOUDY 70 67 90 CALM 29.92R Allentown CLOUDY 68 63 84 SE10 29.94R Scranton CLOUDY 71 65 81 W5 29.93R $$ CTZ002-004>006-009-010-012-RIZ004-006-007-MAZ004-011-015-250500- SOUTHERN NEW ENGLAND IN CT CITY SKY/WX TMP DP RH WIND PRES REMARKS Bradley INTL CLOUDY 59 54 83 NE12 29.99R Hartford CLOUDY 60 56 86 N12 29.97S Danbury CLOUDY 59 55 87 NE6 29.98R Wtrbury/Oxford CLOUDY 57 52 82 NE8 29.98R Bridgeport LGT RAIN 62 56 80 NE8 29.96S Meriden CLOUDY 59 55 87 N7 29.98R New Haven CLOUDY 61 56 83 NE9 29.96S Chester CLOUDY 59 55 88 N8G16 29.97R Groton CLOUDY 61 56 83 N7 29.96R Wilimantic CLOUDY 61 56 83 NE8 29.98R IN RI CITY SKY/WX TMP DP RH WIND PRES REMARKS Providence DRIZZLE 59 59 100 N9 29.96R Block Island CLOUDY 61 57 87 N14G20 29.95R Westerly CLOUDY 61 57 87 N6 29.96R IN MA CITY SKY/WX TMP DP RH WIND PRES REMARKS Boston CLOUDY 58 57 97 N13 29.97R Worcester CLOUDY 53 51 93 NE13 30.00R FOG Westfield CLOUDY 58 55 90 N6 30.00R Provincetown CLOUDY 59 57 93 NE13 29.92R Nantucket CLOUDY 63 62 97 N9 29.89R $$ ANZ330-335-338-340-345-350-353-355-250500- COASTAL MARINE OBSERVATIONS STATION/POSITION TIME SKY/WX TEMP WIND PRES VSBY WAVE AIR SEA DIR/SP/G HT/PER (UTC) (F) (DEG/KT/KT) (MB) (MI) (FT/S) NY HARB ENTRANCE 0250 66 72 60/ 10/ 14 1013.3 4/ 7 20 S FIRE ISLAND 0350 66 73 50/ 10/ 14 1013.4 5/ 7 GREAT SOUTH BAY 0330 63 78 40/ 10/ 17 N/A 23 SSW MONTAUK P 0350 64 72 1013.6 5/ 6 15 E BARNEGAT LI 0330 71 N/A 5/ 6 HUDSON CANYON 0250 69 75 40/ 12/ 14 1012.5 5/ 7 KINGS POINT 0336 63 71 120/ 4/ 9 1014.3 EXECUTION ROCKS 0345 65 80/ 12/ 17 N/A CENTRAL LI SOUND 0315 63 60/ 16/ 19 N/A 4 EASTERN LI SOUND NOT AVBL ROBBINS REEF 0336 90/ 12/ 13 1014.7 $$ >>>>>>>>>>>>>>>>>>>>>>>>>>>> KEY <<<<<<<<<<<<<<<<<<<<<<<<<<< > < > SKY/WX - Sky Condition/Present Weather < > TMP - Temperature in Fahrenheit < > DP - Dew Point in Fahrenheit < > RH - Relative Humidity in Percent < > WIND - Direction (from) and Speed in MPH < > PRES - Mean Sea Level Pressure (inches of Hg) < > WCI - Wind Chill Index < > VSB - VISIBILITY IN MILES < > HX - HEAT INDEX < > TC - TEMPERATURE IN CELSIUS < > VRB - VARIABLE WIND DIRECTION < > < >>>>>>>>>>>>>>>>>>>>>>>>>>>> KEY <<<<<<<<<<<<<<<<<<<<<<<<<<<

USA.gov is the U.S. government's official web portal to all federal, state and local government web resources and services.